Terminal Aerodrome Forecast
Issued by NWS

Home | Current Version | Previous Version | Text Only | Print | Product List | Glossary On
Versions: 1 2 3 4 5 6 7 8 9 10 11 12 13 14 15 16 17 18 19 20 21 22 23
000
FTUS44 KMOB 221200 RRA
TAFBFM
TAF
KBFM 221259Z 2213/2312 00000KT P6SM SKC
     FM221900 01005KT P6SM VCTS SCT030CB
     FM230000 01005KT P6SM SKC=

USA.gov is the U.S. government's official web portal to all federal, state and local government web resources and services.